EW2796 Camano Island WA US current weather conditions

sailwx.info

Wind from 165 at 0 knots gusting 4

Air temperature 5.0° C
Dewpoint 4.7° C

Last reported at 2019-Dec-09 18:05 UTC.
Time now 2019-Dec-09 18:39 UTC

Location: N 48°09' W 122°31'.
View on Google Maps.

See reports from other nearby stations

  
Tides and Currents Weather Stations Pressure Air Temp Water Temp Dewpoint Dewpoint Depression Visibility Wind Speed Wind Dir Waves Ship Positions
date/time (UTC)wind fromknots sea level pressurealtimeterstation pressurevisibilityair tempwater tempwave heightnotes
2019-Dec-09 18:05 165 0 gusting 4 5.0
2019-Dec-09 18:00 120 5.0
2019-Dec-09 17:55 125 5.0
2019-Dec-09 17:50 129 5.0
2019-Dec-09 17:45 116 5.0
2019-Dec-09 17:38 040 0 gusting 2 4.4
2019-Dec-09 17:30 030 0 gusting 2 4.4
2019-Dec-09 17:25 355 4.4
2019-Dec-09 17:20 352 4.4
2019-Dec-09 17:15 057 4.4
2019-Dec-09 17:10 057 0 gusting 1 4.4
2019-Dec-09 17:05 035 0 gusting 2 4.4
2019-Dec-09 17:00 356 0 gusting 2 4.4
2019-Dec-09 16:55 315 1 gusting 2 4.4
2019-Dec-09 16:50 301 2 gusting 4 4.4
2019-Dec-09 16:45 316 2 gusting 4 5.0
2019-Dec-09 16:40 327 2 gusting 4 5.0
2019-Dec-09 16:35 321 1 gusting 4 5.0
2019-Dec-09 16:30 300 5.0
2019-Dec-09 16:25 027 5.0
2019-Dec-09 16:20 031 0 gusting 2 5.0
2019-Dec-09 16:15 032 0 gusting 3 5.0
2019-Dec-09 16:10 031 1 gusting 3 5.0
2019-Dec-09 16:05 031 1 gusting 3 5.0
2019-Dec-09 16:00 027 1 gusting 3 5.0
2019-Dec-09 15:55 019 1 gusting 2 5.0
2019-Dec-09 15:50 007 0 gusting 2 5.0
2019-Dec-09 15:45 019 0 gusting 3 5.0
2019-Dec-09 15:40 010 1 gusting 3 5.0
2019-Dec-09 15:35 001 1 gusting 3 5.0
2019-Dec-09 15:30 001 0 gusting 2 5.0
2019-Dec-09 15:25 345 1 gusting 3 5.0
2019-Dec-09 15:20 351 1 gusting 3 5.0
2019-Dec-09 15:15 358 0 gusting 2 5.0
2019-Dec-09 15:10 356 0 gusting 3 5.0
2019-Dec-09 15:05 356 1 gusting 5 5.0
2019-Dec-09 15:00 358 1 gusting 5 5.0
2019-Dec-09 14:55 023 0 gusting 3 5.0
2019-Dec-09 14:50 009 2 gusting 3 5.0
2019-Dec-09 14:45 001 1 gusting 3 5.0
2019-Dec-09 14:40 012 1 gusting 3 5.0
2019-Dec-09 14:35 026 1 gusting 3 5.0
2019-Dec-09 14:30 022 1 gusting 3 5.0
2019-Dec-09 14:25 352 5.0
2019-Dec-09 14:20 006 0 gusting 2 5.0
2019-Dec-09 14:15 007 0 gusting 2 5.0
2019-Dec-09 14:10 003 5.0
2019-Dec-09 14:05 049 5.0
2019-Dec-09 14:00 050 5.0
2019-Dec-09 13:55 050 5.0
2019-Dec-09 13:50 048 0 gusting 2 5.0
2019-Dec-09 13:45 037 0 gusting 2 5.0
2019-Dec-09 13:40 017 0 gusting 2 5.0
2019-Dec-09 13:35 017 1 gusting 4 5.6
2019-Dec-09 13:30 021 0 gusting 4 5.6
2019-Dec-09 13:25 008 5.6
2019-Dec-09 13:20 016 5.6
2019-Dec-09 13:15 022 0 gusting 2 5.6
2019-Dec-09 13:10 018 0 gusting 2 5.6
2019-Dec-09 13:05 018 0 gusting 2 5.6
2019-Dec-09 13:00 016 5.6
2019-Dec-09 12:55 015 0 gusting 2 5.6
2019-Dec-09 12:50 009 1 gusting 5 5.6
2019-Dec-09 12:45 020 1 gusting 5 5.6
2019-Dec-09 12:40 036 1 gusting 4 5.6
2019-Dec-09 12:35 011 2 gusting 5 5.6
2019-Dec-09 12:30 350 1 gusting 5 5.6
2019-Dec-09 12:25 033 0 gusting 2 5.6
2019-Dec-09 12:20 017 1 gusting 4 5.6
2019-Dec-09 12:15 355 1 gusting 4 5.6
2019-Dec-09 12:10 332 0 gusting 4 5.6
2019-Dec-09 12:05 237 0 gusting 3 5.6
2019-Dec-09 12:00 174 0 gusting 3 5.6
2019-Dec-09 11:55 191 0 gusting 3 5.6
2019-Dec-09 11:50 172 1 gusting 4 5.6
2019-Dec-09 11:45 139 0 gusting 4 5.6
2019-Dec-09 11:40 032 5.6
2019-Dec-09 11:35 028 5.6
2019-Dec-09 11:30 026 0 gusting 1 5.6
2019-Dec-09 11:25 026 0 gusting 1 5.6
2019-Dec-09 11:20 026 0 gusting 3 5.6
2019-Dec-09 11:15 026 5.6
2019-Dec-09 11:10 104 5.6
2019-Dec-09 11:05 103 5.6
2019-Dec-09 11:00 120 0 gusting 2 5.6
2019-Dec-09 10:55 208 0 gusting 4 5.6
2019-Dec-09 10:50 201 1 gusting 4 5.6
2019-Dec-09 10:45 204 1 gusting 3 5.6
2019-Dec-09 10:40 202 0 gusting 3 5.6
2019-Dec-09 10:35 194 1 gusting 4 5.6
2019-Dec-09 10:30 193 0 gusting 4 5.6
2019-Dec-09 10:25 207 5.6
2019-Dec-09 10:20 227 0 gusting 2 5.6
2019-Dec-09 10:15 272 0 gusting 3 5.6
2019-Dec-09 10:10 228 0 gusting 3 5.6
2019-Dec-09 10:05 211 1 gusting 3 5.6
2019-Dec-09 10:00 191 1 gusting 5 5.6
2019-Dec-09 09:55 134 1 gusting 5 5.6
2019-Dec-09 09:50 100 1 gusting 3 5.6
2019-Dec-09 09:45 073 1 gusting 3 5.6
2019-Dec-09 09:40 074 1 gusting 3 5.6
2019-Dec-09 09:35 078 1 gusting 3 5.6
2019-Dec-09 09:30 080 1 gusting 3 5.6
2019-Dec-09 09:25 087 1 gusting 3 5.6
2019-Dec-09 09:20 088 1 gusting 3 5.6
2019-Dec-09 09:15 085 1 gusting 4 5.6
2019-Dec-09 09:10 078 1 gusting 4 5.6
2019-Dec-09 09:05 080 1 gusting 3 5.6
2019-Dec-09 09:00 097 1 gusting 3 5.6
2019-Dec-09 08:55 093 1 gusting 3 5.6
2019-Dec-09 08:50 054 0 gusting 2 5.6
2019-Dec-09 08:45 103 1 gusting 3 5.0
2019-Dec-09 08:40 105 2 gusting 5 5.0
2019-Dec-09 08:35 098 3 gusting 5 5.0
2019-Dec-09 08:30 099 3 gusting 5 5.0
2019-Dec-09 08:25 099 3 gusting 5 5.0
2019-Dec-09 08:20 095 2 gusting 3 5.6
2019-Dec-09 08:15 092 2 gusting 3 5.6
2019-Dec-09 08:10 090 2 gusting 3 5.6
2019-Dec-09 08:05 093 2 gusting 3 5.6
2019-Dec-09 08:00 099 2 gusting 3 5.6
2019-Dec-09 07:55 098 2 gusting 3 5.6
2019-Dec-09 07:50 097 2 gusting 3 5.6
2019-Dec-09 07:45 098 2 gusting 5 5.6
2019-Dec-09 07:40 101 2 gusting 5 5.6
2019-Dec-09 07:35 096 1 gusting 3 5.6
2019-Dec-09 07:30 088 1 gusting 3 6.1
2019-Dec-09 07:25 089 1 gusting 3 6.1
2019-Dec-09 07:20 100 1 gusting 2 5.6
2019-Dec-09 07:15 109 1 gusting 2 5.6
2019-Dec-09 07:10 108 1 gusting 2 5.6
2019-Dec-09 07:05 095 1 gusting 2 5.6
2019-Dec-09 07:00 082 0 gusting 2 6.1
2019-Dec-09 06:55 080 0 gusting 1 6.1
2019-Dec-09 06:50 085 0 gusting 2 5.6
2019-Dec-09 06:45 088 0 gusting 2 5.6
2019-Dec-09 06:40 087 1 gusting 2 5.6
2019-Dec-09 06:35 086 0 gusting 3 5.6
2019-Dec-09 06:30 083 1 gusting 3 6.1
2019-Dec-09 06:25 092 1 gusting 3 5.6
2019-Dec-09 06:20 103 2 gusting 3 5.6
2019-Dec-09 06:15 107 2 gusting 3 5.6
2019-Dec-09 06:10 102 1 gusting 3 5.6
2019-Dec-09 06:05 091 1 gusting 2 6.1
2019-Dec-09 06:00 084 0 gusting 1 6.1
2019-Dec-09 05:55 084 1 gusting 2 6.1
2019-Dec-09 05:50 081 1 gusting 2 6.1
2019-Dec-09 05:45 087 0 gusting 2 6.1
2019-Dec-09 05:40 101 1 gusting 3 6.1
2019-Dec-09 05:35 100 2 gusting 3 6.1
2019-Dec-09 05:30 093 2 gusting 4 6.7
2019-Dec-09 05:25 086 1 gusting 4 6.7
2019-Dec-09 05:20 080 0 gusting 2 6.7
2019-Dec-09 05:15 077 6.7
2019-Dec-09 05:10 077 6.7
2019-Dec-09 05:05 088 0 gusting 2 6.7
2019-Dec-09 05:00 084 1 gusting 4 6.7
2019-Dec-09 04:55 079 2 gusting 4 6.7
2019-Dec-09 04:50 079 2 gusting 4 6.7
2019-Dec-09 04:45 079 2 gusting 3 6.7
2019-Dec-09 04:40 076 1 gusting 3 6.7
2019-Dec-09 04:35 077 1 gusting 2 6.7
2019-Dec-09 04:30 072 1 gusting 2 6.7
2019-Dec-09 04:25 052 0 gusting 2 6.7
2019-Dec-09 04:20 027 0 gusting 1 6.7
2019-Dec-09 04:15 030 6.7
2019-Dec-09 04:10 057 0 gusting 1 6.7
2019-Dec-09 04:05 073 0 gusting 2 6.7
2019-Dec-09 04:00 074 1 gusting 3 6.7
2019-Dec-09 03:55 047 1 gusting 3 6.7
2019-Dec-09 03:50 009 1 gusting 2 6.7
2019-Dec-09 03:45 011 1 gusting 2 6.7
2019-Dec-09 03:40 032 0 gusting 2 6.1
2019-Dec-09 03:35 024 1 gusting 3 6.1
2019-Dec-09 03:30 029 1 gusting 3 6.1
2019-Dec-09 03:25 054 0 gusting 2 6.1
2019-Dec-09 03:20 074 1 gusting 4 6.1
2019-Dec-09 03:15 085 2 gusting 4 6.1
2019-Dec-09 03:10 087 2 gusting 4 6.1
2019-Dec-09 03:05 087 2 gusting 3 6.1
2019-Dec-09 03:00 087 3 gusting 4 6.1
2019-Dec-09 02:55 090 3 gusting 5 6.1
2019-Dec-09 02:50 095 3 gusting 5 6.1
2019-Dec-09 02:45 098 2 gusting 3 6.1
2019-Dec-09 02:40 101 2 gusting 3 6.7
2019-Dec-09 02:35 101 2 gusting 3 6.7
2019-Dec-09 02:30 095 2 gusting 3 6.7
2019-Dec-09 02:25 091 2 gusting 3 6.7
2019-Dec-09 02:20 093 2 gusting 3 7.2
2019-Dec-09 02:15 098 1 gusting 2 7.2
2019-Dec-09 02:10 105 1 gusting 2 7.2
2019-Dec-09 02:05 107 1 gusting 2 7.2
2019-Dec-09 02:00 102 2 gusting 3 7.2
2019-Dec-09 01:55 100 2 gusting 3 7.2
2019-Dec-09 01:50 097 1 gusting 3 7.8
2019-Dec-09 01:45 090 1 gusting 3 7.8
2019-Dec-09 01:40 079 1 gusting 2 7.8
2019-Dec-09 01:35 072 1 gusting 2 7.8
2019-Dec-09 01:30 063 1 gusting 2 7.8
2019-Dec-09 01:25 071 1 gusting 3 7.8
2019-Dec-09 01:20 071 1 gusting 3 7.8
2019-Dec-09 01:15 046 1 gusting 2 7.8
2019-Dec-09 01:10 026 0 gusting 2 7.8
2019-Dec-09 01:05 031 0 gusting 1 8.3
2019-Dec-09 01:00 072 8.3
2019-Dec-09 00:55 072 8.3
2019-Dec-09 00:50 060 0 gusting 2 8.3
2019-Dec-09 00:45 055 0 gusting 2 8.3
2019-Dec-09 00:40 052 0 gusting 1 8.3
2019-Dec-09 00:35 052 0 gusting 1 8.9
2019-Dec-09 00:30 052 0 gusting 1 8.9
2019-Dec-09 00:25 050 0 gusting 2 8.9
2019-Dec-09 00:20 023 0 gusting 2 8.9
2019-Dec-09 00:15 349 0 gusting 2 8.9
2019-Dec-09 00:10 314 1 gusting 4 8.9
2019-Dec-09 00:05 311 3 gusting 6 8.9
2019-Dec-09 00:00 309 5 gusting 6 8.9
2019-Dec-08 23:55 307 6 gusting 7 8.9
2019-Dec-08 23:50 302 6 gusting 7 8.9
2019-Dec-08 23:45 305 4 gusting 7 8.9
2019-Dec-08 23:40 321 4 gusting 6 8.9
2019-Dec-08 23:35 338 6 gusting 8 8.9
2019-Dec-08 23:30 347 7 gusting 9 8.9
2019-Dec-08 23:25 347 6 gusting 9 8.9
2019-Dec-08 23:20 346 5 gusting 9 8.9
2019-Dec-08 23:15 348 5 gusting 7 8.9
2019-Dec-08 23:10 351 6 gusting 7 8.9
2019-Dec-08 23:05 355 6 gusting 7 8.9
2019-Dec-08 23:00 352 6 gusting 8 8.9
2019-Dec-08 22:55 350 7 gusting 8 8.9
2019-Dec-08 22:50 348 6 gusting 8 8.9
2019-Dec-08 22:45 344 4 gusting 7 8.9
2019-Dec-08 22:40 347 3 gusting 4 8.9
2019-Dec-08 22:35 358 3 gusting 4 8.9
2019-Dec-08 22:30 003 3 gusting 6 8.9
2019-Dec-08 22:25 359 5 gusting 6 8.9
2019-Dec-08 22:20 356 5 gusting 6 8.9
2019-Dec-08 22:15 353 4 gusting 6 8.9
2019-Dec-08 22:10 351 4 gusting 5 8.9
2019-Dec-08 22:05 350 5 gusting 6 8.9
2019-Dec-08 22:00 353 5 gusting 7 8.9
2019-Dec-08 21:55 355 5 gusting 7 8.9
2019-Dec-08 21:50 349 4 gusting 6 8.9
2019-Dec-08 21:45 341 4 gusting 5 8.9
2019-Dec-08 21:40 339 4 gusting 5 8.9
2019-Dec-08 21:35 343 3 gusting 5 8.9
2019-Dec-08 21:30 340 3 gusting 5 8.9
2019-Dec-08 21:25 330 4 gusting 5 8.9
2019-Dec-08 21:20 323 3 gusting 4 8.9
2019-Dec-08 21:15 340 2 gusting 4 8.9
2019-Dec-08 21:10 014 2 gusting 4 8.9
2019-Dec-08 21:05 019 2 gusting 4 8.9
2019-Dec-08 21:00 019 2 gusting 4 8.9
2019-Dec-08 20:55 005 3 gusting 4 8.9
2019-Dec-08 20:50 348 3 gusting 4 8.9
2019-Dec-08 20:45 339 3 gusting 5 8.9
2019-Dec-08 20:40 339 3 gusting 5 8.9
2019-Dec-08 20:35 345 2 gusting 4 8.9
2019-Dec-08 20:30 347 2 gusting 4 8.9
2019-Dec-08 20:25 336 1 gusting 3 8.9
2019-Dec-08 20:20 333 2 gusting 3 8.9
2019-Dec-08 20:15 345 3 gusting 4 8.9
2019-Dec-08 20:10 349 3 gusting 4 8.9
2019-Dec-08 20:05 349 3 gusting 4 8.9
2019-Dec-08 20:00 351 3 gusting 5 8.9
2019-Dec-08 19:55 353 4 gusting 5 8.9
2019-Dec-08 19:50 354 4 gusting 6 8.9
2019-Dec-08 19:45 352 5 gusting 6 8.9
2019-Dec-08 19:40 349 5 gusting 6 8.9
2019-Dec-08 19:35 347 5 gusting 6 8.9
2019-Dec-08 19:30 345 4 gusting 5 8.9
2019-Dec-08 19:25 340 4 gusting 5 8.9
2019-Dec-08 19:20 333 4 gusting 6 8.9
2019-Dec-08 19:15 332 3 gusting 6 8.9
2019-Dec-08 19:10 330 4 gusting 6 8.9
2019-Dec-08 19:05 328 5 gusting 6 8.9
2019-Dec-08 19:00 330 4 gusting 6 8.9
2019-Dec-08 18:55 329 4 gusting 6 8.9
2019-Dec-08 18:50 336 3 gusting 5 8.9
2019-Dec-08 18:45 349 3 gusting 5 8.9
2019-Dec-08 18:40 355 3 gusting 6 8.9
2019-Dec-08 18:35 358 3 gusting 6 8.9
2019-Dec-08 18:30 001 3 gusting 6 8.9
2019-Dec-08 18:25 003 3 gusting 6 8.9
2019-Dec-08 18:20 002 4 gusting 6 8.9
2019-Dec-08 18:15 348 5 gusting 7 8.9
2019-Dec-08 18:10 336 6 gusting 7 8.9
2019-Dec-08 18:05 331 6 gusting 8 8.9
2019-Dec-08 18:00 331 7 gusting 9 8.9
2019-Dec-08 17:55 335 7 gusting 9 8.9
2019-Dec-08 17:50 332 7 gusting 9 8.9
2019-Dec-08 17:45 329 6 gusting 9 8.9
2019-Dec-08 17:40 330 6 gusting 7 8.9
2019-Dec-08 17:35 332 6 gusting 7 8.9
2019-Dec-08 17:30 339 5 gusting 7 8.9
2019-Dec-08 17:25 340 4 gusting 5 8.3
2019-Dec-08 17:20 337 3 gusting 5 8.3
2019-Dec-08 17:15 340 1 gusting 3 8.3
2019-Dec-08 17:10 328 1 gusting 2 8.3
2019-Dec-08 17:05 314 0 gusting 2 8.3
2019-Dec-08 17:00 312 8.3
2019-Dec-08 16:55 313 8.3
2019-Dec-08 16:50 312 0 gusting 2 8.3
2019-Dec-08 16:45 312 1 gusting 2 8.3
2019-Dec-08 16:40 311 0 gusting 2 8.3
2019-Dec-08 16:35 312 8.3
2019-Dec-08 16:30 312 8.3
2019-Dec-08 16:25 312 8.3
2019-Dec-08 16:20 8.3
2019-Dec-08 16:15 8.3
2019-Dec-08 16:10 8.3
2019-Dec-08 16:05 025 8.3
2019-Dec-08 16:00 022 0 gusting 1 8.3
2019-Dec-08 15:55 020 8.3
2019-Dec-08 15:50 006 8.3
2019-Dec-08 15:45 005 8.3
2019-Dec-08 15:40 014 0 gusting 3 8.3
2019-Dec-08 15:35 012 1 gusting 3 8.3
2019-Dec-08 15:30 014 1 gusting 2 8.3
2019-Dec-08 15:25 017 1 gusting 2 8.3
2019-Dec-08 15:20 004 1 gusting 3 8.3
2019-Dec-08 15:15 005 2 gusting 3 8.3
2019-Dec-08 15:10 008 2 gusting 3 8.3
2019-Dec-08 15:05 006 2 gusting 4 8.3
2019-Dec-08 15:00 011 3 gusting 6 8.3
2019-Dec-08 14:55 015 3 gusting 6 8.3
2019-Dec-08 14:50 012 3 gusting 4 8.3
2019-Dec-08 14:45 006 2 gusting 4 8.3
2019-Dec-08 14:40 001 3 gusting 5 8.3
2019-Dec-08 14:35 352 2 gusting 5 8.3
2019-Dec-08 14:30 340 2 gusting 3 8.9
2019-Dec-08 14:25 339 1 gusting 3 8.9
2019-Dec-08 14:20 339 1 gusting 2 8.3
2019-Dec-08 14:15 341 1 gusting 2 8.3
2019-Dec-08 14:10 344 0 gusting 2 8.3
2019-Dec-08 14:05 355 8.3
2019-Dec-08 14:00 355 8.3
2019-Dec-08 13:55 344 0 gusting 2 8.3
2019-Dec-08 13:50 345 0 gusting 2 8.3
2019-Dec-08 13:45 356 0 gusting 3 8.3
2019-Dec-08 13:40 004 0 gusting 3 8.3
2019-Dec-08 13:35 009 1 gusting 3 8.3
2019-Dec-08 13:30 016 1 gusting 3 8.3
2019-Dec-08 13:25 012 2 gusting 3 8.3
2019-Dec-08 13:20 357 3 gusting 5 8.3
2019-Dec-08 13:15 348 5 gusting 6 8.9
2019-Dec-08 13:10 343 5 gusting 6 8.9
2019-Dec-08 13:05 339 5 gusting 6 8.9
2019-Dec-08 13:00 332 5 gusting 6 8.9
2019-Dec-08 12:55 326 5 gusting 6 8.9
2019-Dec-08 12:50 324 5 gusting 5 8.9
2019-Dec-08 12:45 322 5 gusting 6 8.9
2019-Dec-08 12:40 311 4 gusting 6 8.9
2019-Dec-08 12:35 302 1 gusting 4 8.3
2019-Dec-08 12:30 356 0 gusting 2 8.3
2019-Dec-08 12:25 006 1 gusting 3 8.3
2019-Dec-08 12:20 009 2 gusting 6 8.3
2019-Dec-08 12:15 003 4 gusting 6 8.3
2019-Dec-08 12:10 358 4 gusting 7 8.3
2019-Dec-08 12:05 004 3 gusting 7 8.3
2019-Dec-08 12:00 007 3 gusting 6 8.3
2019-Dec-08 11:55 004 3 gusting 6 8.3
2019-Dec-08 11:50 010 2 gusting 4 8.3
2019-Dec-08 11:45 014 2 gusting 6 8.3
2019-Dec-08 11:40 007 3 gusting 6 8.3
2019-Dec-08 11:35 006 3 gusting 5 8.3
2019-Dec-08 11:30 007 3 gusting 5 8.3
2019-Dec-08 11:25 002 2 gusting 4 8.3
2019-Dec-08 11:20 356 2 gusting 3 8.3
2019-Dec-08 11:15 357 2 gusting 4 8.3
2019-Dec-08 11:10 003 3 gusting 4 8.3
2019-Dec-08 11:05 009 3 gusting 4 8.3
2019-Dec-08 11:00 008 3 gusting 5 8.3
2019-Dec-08 10:55 004 3 gusting 6 8.3
2019-Dec-08 10:50 006 3 gusting 6 8.3
2019-Dec-08 10:45 006 3 gusting 6 8.3
2019-Dec-08 10:40 004 3 gusting 6 8.3
2019-Dec-08 10:35 001 4 gusting 6 8.3
2019-Dec-08 10:30 357 4 gusting 6 8.3
2019-Dec-08 10:25 357 3 gusting 5 8.3
2019-Dec-08 10:20 004 2 gusting 4 8.3
2019-Dec-08 10:15 012 2 gusting 4 8.3
2019-Dec-08 10:10 010 2 gusting 4 8.3
2019-Dec-08 10:05 001 2 gusting 4 8.3
2019-Dec-08 10:00 355 2 gusting 3 8.3
2019-Dec-08 09:55 350 1 gusting 2 8.3
2019-Dec-08 09:50 338 0 gusting 1 7.8
2019-Dec-08 09:45 323 7.8
2019-Dec-08 09:40 7.8
2019-Dec-08 09:35 7.8
2019-Dec-08 09:30 7.8
2019-Dec-08 09:25 7.8
2019-Dec-08 09:20 314 8.3
2019-Dec-08 09:15 315 0 gusting 2 8.3
2019-Dec-08 09:10 315 0 gusting 2 8.3
2019-Dec-08 09:05 327 0 gusting 3 8.3
2019-Dec-08 09:00 350 1 gusting 3 8.3
2019-Dec-08 08:55 017 1 gusting 3 7.8
2019-Dec-08 08:50 023 1 gusting 3 7.8
2019-Dec-08 08:45 026 0 gusting 3 7.8
2019-Dec-08 08:40 021 0 gusting 2 7.8
2019-Dec-08 08:35 022 0 gusting 2 7.8
2019-Dec-08 08:30 052 7.8
2019-Dec-08 08:25 052 7.8
2019-Dec-08 08:20 052 7.8
2019-Dec-08 08:15 7.8
2019-Dec-08 08:10 052 7.8
2019-Dec-08 08:05 052 7.8
2019-Dec-08 08:00 052 7.8
2019-Dec-08 07:55 053 7.8
2019-Dec-08 07:50 052 7.8
2019-Dec-08 07:45 052 7.8
2019-Dec-08 07:40 7.8
2019-Dec-08 07:35 7.8
2019-Dec-08 07:30 7.8
2019-Dec-08 07:25 052 7.8
2019-Dec-08 07:20 052 7.8
2019-Dec-08 07:15 053 7.8
2019-Dec-08 07:10 053 7.8
2019-Dec-08 07:05 050 0 gusting 1 7.8
2019-Dec-08 07:00 049 7.8
2019-Dec-08 06:55 7.8
2019-Dec-08 06:50 048 7.8
2019-Dec-08 06:45 048 7.8
2019-Dec-08 06:40 048 7.8
2019-Dec-08 06:35 7.8
2019-Dec-08 06:30 047 7.8
2019-Dec-08 06:25 049 7.8
2019-Dec-08 06:20 050 7.8
2019-Dec-08 06:15 7.8
2019-Dec-08 06:10 7.8
2019-Dec-08 06:05 062 7.8
2019-Dec-08 06:00 064 0 gusting 2 7.8
2019-Dec-08 05:55 046 1 gusting 3 7.8
2019-Dec-08 05:50 036 0 gusting 3 7.8
2019-Dec-08 05:45 097 0 gusting 2 7.8
2019-Dec-08 05:40 107 7.8
2019-Dec-08 05:35 106 7.8
2019-Dec-08 05:30 107 0 gusting 1 7.2
2019-Dec-08 05:25 107 1 gusting 1 7.2
2019-Dec-08 05:20 107 1 gusting 2 7.8
2019-Dec-08 05:15 107 1 gusting 2 7.8
2019-Dec-08 05:10 107 1 gusting 2 7.2
2019-Dec-08 05:05 107 0 gusting 1 7.2
2019-Dec-08 05:00 106 7.2
2019-Dec-08 04:55 106 7.2
2019-Dec-08 04:50 106 0 gusting 2 7.2
2019-Dec-08 04:45 106 1 gusting 2 7.2
2019-Dec-08 04:40 107 1 gusting 2 7.8
2019-Dec-08 04:35 107 1 gusting 2 7.8
2019-Dec-08 04:30 108 0 gusting 2 7.8
2019-Dec-08 04:25 108 0 gusting 2 7.8
2019-Dec-08 04:20 108 0 gusting 1 7.8
2019-Dec-08 04:15 108 0 gusting 1 7.8
2019-Dec-08 04:10 108 7.8
2019-Dec-08 04:05 108 7.8
2019-Dec-08 04:00 108 0 gusting 1 7.8
2019-Dec-08 03:55 108 0 gusting 1 8.3
2019-Dec-08 03:50 108 8.3
2019-Dec-08 03:45 108 8.3
2019-Dec-08 03:40 108 0 gusting 1 8.3
2019-Dec-08 03:35 108 0 gusting 1 8.3
2019-Dec-08 03:30 108 0 gusting 1 8.3
2019-Dec-08 03:25 108 8.3
2019-Dec-08 03:20 108 8.3
2019-Dec-08 03:15 108 8.3
2019-Dec-08 03:10 108 8.3
2019-Dec-08 03:05 108 8.3
2019-Dec-08 03:00 108 8.3
2019-Dec-08 02:55 108 8.3
2019-Dec-08 02:50 108 8.3
2019-Dec-08 02:45 8.3
2019-Dec-08 02:40 8.3
2019-Dec-08 02:35 108 8.3
2019-Dec-08 02:30 108 0 gusting 1 8.3
2019-Dec-08 02:25 108 8.3
2019-Dec-08 02:20 108 8.3
2019-Dec-08 02:15 108 8.3
2019-Dec-08 02:10 108 8.3
2019-Dec-08 02:05 108 0 gusting 1 8.3
2019-Dec-08 02:00 108 8.3
2019-Dec-08 01:55 8.3
2019-Dec-08 01:50 108 8.3
2019-Dec-08 01:45 108 0 gusting 1 8.3
2019-Dec-08 01:40 108 8.3
2019-Dec-08 01:35 108 8.3
2019-Dec-08 01:30 108 8.3
2019-Dec-08 01:25 108 0 gusting 1 8.3
2019-Dec-08 01:20 108 8.3
2019-Dec-08 01:15 109 8.3
2019-Dec-08 01:10 108 8.3
2019-Dec-08 01:05 108 8.3
2019-Dec-08 01:00 108 8.3
2019-Dec-08 00:55 8.3
2019-Dec-08 00:50 140 8.3
2019-Dec-08 00:45 138 0 gusting 3 8.3
2019-Dec-08 00:40 136 8.3
2019-Dec-08 00:35 084 8.3
2019-Dec-08 00:30 099 8.3
2019-Dec-08 00:25 106 0 gusting 2 8.3
2019-Dec-08 00:20 102 8.3
2019-Dec-08 00:15 123 8.3
2019-Dec-08 00:10 110 8.3
2019-Dec-08 00:05 120 8.3
2019-Dec-08 00:00 149 8.3
2019-Dec-07 23:55 153 0 gusting 2 8.3
2019-Dec-07 23:50 145 8.3
2019-Dec-07 23:45 135 8.3
2019-Dec-07 23:40 147 8.3
2019-Dec-07 23:35 141 8.3
2019-Dec-07 23:30 145 0 gusting 4 8.3
2019-Dec-07 23:25 132 0 gusting 3 8.3
2019-Dec-07 23:20 095 0 gusting 3 8.3
2019-Dec-07 23:15 027 0 gusting 2 8.3
2019-Dec-07 23:10 034 0 gusting 2 8.3
2019-Dec-07 23:05 049 8.3
2019-Dec-07 23:00 280 8.9
2019-Dec-07 22:55 185 8.9
2019-Dec-07 22:50 187 8.9
2019-Dec-07 22:45 193 8.9
2019-Dec-07 22:40 173 8.9
2019-Dec-07 22:35 171 0 gusting 2 8.3
2019-Dec-07 22:30 173 0 gusting 4 8.3
2019-Dec-07 22:25 158 1 gusting 4 8.3
2019-Dec-07 22:20 150 0 gusting 3 8.3
2019-Dec-07 22:15 167 1 gusting 4 8.3
2019-Dec-07 22:10 165 1 gusting 4 8.3
2019-Dec-07 22:05 169 1 gusting 4 8.3
2019-Dec-07 22:00 181 1 gusting 4 8.3
2019-Dec-07 21:55 184 1 gusting 3 8.3
2019-Dec-07 21:50 179 1 gusting 3 8.3
2019-Dec-07 21:45 174 1 gusting 4 8.3
2019-Dec-07 21:40 175 2 gusting 4 8.3
2019-Dec-07 21:35 169 2 gusting 4 8.3
2019-Dec-07 21:30 175 2 gusting 4 8.3
2019-Dec-07 21:25 187 3 gusting 5 8.3
2019-Dec-07 21:20 185 2 gusting 5 8.3
2019-Dec-07 21:15 178 2 gusting 5 8.3
2019-Dec-07 21:10 173 3 gusting 5 8.3
2019-Dec-07 21:05 172 3 gusting 5 8.3
2019-Dec-07 21:00 174 4 gusting 6 8.3
2019-Dec-07 20:55 170 4 gusting 7 8.3
2019-Dec-07 20:50 176 4 gusting 7 8.3
2019-Dec-07 20:45 181 4 gusting 7 8.3
2019-Dec-07 20:40 174 4 gusting 7 8.3
2019-Dec-07 20:35 176 4 gusting 8 8.3
2019-Dec-07 20:30 177 3 gusting 8 8.3
2019-Dec-07 20:25 178 2 gusting 6 8.3
2019-Dec-07 20:20 169 2 gusting 6 8.3
2019-Dec-07 20:15 163 3 gusting 7 8.3
2019-Dec-07 20:10 172 3 gusting 7 8.3
2019-Dec-07 20:05 174 2 gusting 7 8.3
2019-Dec-07 20:00 177 1 gusting 4 8.3
2019-Dec-07 19:55 195 2 gusting 4 8.3
2019-Dec-07 19:50 192 1 gusting 4 8.3
2019-Dec-07 19:45 179 1 gusting 4 8.3
2019-Dec-07 19:40 178 3 gusting 7 8.3
2019-Dec-07 19:35 186 3 gusting 7 8.3
2019-Dec-07 19:30 193 3 gusting 6 8.3
2019-Dec-07 19:25 191 3 gusting 6 8.3
2019-Dec-07 19:20 191 5 gusting 7 8.3
2019-Dec-07 19:15 191 6 gusting 9 7.8
2019-Dec-07 19:10 186 5 gusting 9 7.8
2019-Dec-07 19:05 182 5 gusting 7 7.8
2019-Dec-07 19:00 187 5 gusting 8 7.8
2019-Dec-07 18:55 183 5 gusting 8 7.8
2019-Dec-07 18:50 178 6 gusting 10 8.3
2019-Dec-07 18:45 183 6 gusting 10 8.3
2019-Dec-07 18:40 179 6 gusting 9 7.8
2019-Dec-07 18:35 175 7 gusting 12 7.8
2019-Dec-07 18:30 176 7 gusting 12 8.3
2019-Dec-07 18:25 176 6 gusting 12 8.3
2019-Dec-07 18:20 175 6 gusting 12 8.3
2019-Dec-07 18:15 177 6 gusting 10 8.3
2019-Dec-07 18:10 177 6 gusting 9 8.3
2019-Dec-07 18:05 173 6 gusting 9 8.3
2019-Dec-07 18:00 168 5 gusting 7 8.3